Theta_e
315 318 319 320 321 321 321 321 321 319 318 317 317 318 318 318 318 319 319 319 318 317 317 316 315 317 316 315 308 306 303 303 302 286 286 286 286 286 287 286 286 287 288
312 312 315 317 317 318 319 320 318 318 317 317 317 317 317 318 319 318 318 318 317 317 317 316 315 314 313 312 305 304 301 296 295 286 285 285 285 286 287 285 285 286 285
311 312 311 311 312 314 315 315 314 315 315 315 317 317 318 318 319 319 319 319 318 317 317 316 314 312 308 307 301 299 296 291 290 288 285 285 285 285 284 284 284 284 285
298 305 307 308 310 312 314 314 314 315 316 316 317 318 318 318 318 319 318 318 317 316 313 310 309 305 303 302 296 294 291 289 288 286 284 284 284 284 285 283 282 282 283
296 295 295 296 297 298 300 302 302 304 307 309 311 310 309 309 306 307 307 306 305 304 301 299 297 293 293 296 294 290 289 288 287 286 284 283 282 282 282 283 283 282 282
295 295 295 294 295 297 297 296 296 296 297 296 296 295 296 298 295 296 297 299 297 295 294 292 292 288 292 293 293 292 291 287 286 286 285 284 284 284 284 283 283 280 279
292 290 290 291 292 292 292 292 291 292 292 291 292 292 292 292 294 295 293 294 293 293 291 289 288 287 287 288 291 292 291 293 291 288 285 285 284 285 284 282 281 280 277
289 288 288 289 289 290 291 291 291 290 289 288 287 287 287 288 292 293 291 290 290 289 289 288 288 287 287 287 287 286 286 286 287 286 286 286 286 286 285 284 282 277 276
286 286 287 288 287 289 288 288 288 287 286 286 285 285 284 285 291 292 288 286 286 285 286 287 287 286 288 289 286 285 285 285 288 289 289 289 290 289 286 282 279 278 274
286 286 287 287 288 287 287 286 285 285 284 285 285 285 285 286 291 291 287 285 285 284 284 284 285 286 288 290 286 285 284 284 285 285 285 287 288 287 288 283 280 271 268
284 285 285 285 286 286 285 285 285 285 285 285 285 285 285 285 287 290 289 284 282 282 279 280 282 288 289 290 288 285 283 284 286 284 283 283 283 280 282 280 278 276 272
283 284 285 285 285 286 286 285 285 286 285 284 285 284 284 284 288 290 290 288 287 280 280 282 284 288 289 290 286 288 288 285 284 282 281 281 282 282 282 283 283 282 282
283 284 284 285 285 285 285 285 284 285 284 282 283 282 282 283 285 290 289 288 287 283 284 285 286 288 289 288 288 288 284 282 282 281 281 280 278 278 279 278 281 282 282
277 278 280 282 282 282 283 283 284 283 283 283 282 282 282 282 283 284 285 285 284 284 284 284 286 286 286 285 282 286 283 282 281 280 280 278 275 274 275 279 280 280 279
276 276 276 275 275 276 277 280 279 280 283 282 279 279 278 276 279 284 285 283 276 280 279 279 280 282 282 281 282 282 282 281 281 280 280 279 279 278 277 279 280 276 277
275 275 274 274 273 272 273 274 285 285 285 285 285 279 274 284 286 287 287 287 285 284 273 270 278 278 278 279 279 279 280 280 280 280 279 278 278 278 272 273 275 277 275
273 272 272 272 271 270 268 270 271 274 282 283 282 283 283 283 284 286 288 287 286 283 278 277 276 276 276 276 275 277 277 276 274 279 279 279 277 275 273 271 273 275 274
269 269 269 268 269 268 268 266 266 268 272 273 277 279 282 284 284 284 284 285 283 282 279 278 277 277 276 275 274 268 267 270 274 276 276 276 274 271 268 269 271 272 272
268 267 266 266 266 267 267 267 266 269 270 271 266 272 269 279 281 281 282 279 278 278 278 278 277 277 276 276 275 271 271 269 267 265 265 266 266 267 267 269 268 270 270
264 266 264 264 265 266 266 266 264 262 263 261 261 271 274 273 268 263 268 270 272 272 272 272 270 262 263 263 262 262 261 260 261 261 261 262 265 267 267 266 266 266 266
262 262 263 263 262 261 260 262 262 259 258 257 259 264 274 261 261 262 258 258 258 259 260 260 259 258 257 257 257 258 257 258 257 258 259 260 262 263 264 265 264 263 264
262 261 261 260 259 260 260 260 260 260 257 256 257 259 269 257 256 256 256 254 254 256 257 256 256 255 256 256 256 256 256 256 256 257 257 258 259 259 259 261 261 261 261
263 262 261 261 260 261 261 260 259 258 258 254 255 257 255 253 254 255 255 254 252 254 253 252 253 254 253 253 254 255 256 255 255 255 256 256 258 260 260 258 256 257 259
261 261 261 261 260 260 259 258 257 257 257 256 254 253 255 253 253 254 254 253 252 252 250 250 251 252 251 251 250 250 251 253 254 255 259 260 260 258 259 259 259 260 259
259 259 260 259 258 258 258 258 258 256 255 253 254 255 254 251 252 252 251 251 251 251 253 253 251 251 252 253 253 253 253 259 258 256 255 257 258 256 256 258 258 258 259
259 259 259 259 258 258 256 256 256 255 255 254 253 253 253 253 253 253 253 252 253 253 253 253 253 253 254 255 255 257 258 261 258 259 259 259 258 255 257 257 257 258 257
Wind_Speed
9 10 11 11 12 12 11 11 11 7 8 10 11 11 12 13 12 12 13 13 12 13 13 13 16 16 11 9 7 8 9 9 11 3 3 5 3 9 8 5 5 3 4
6 6 8 8 8 9 10 11 8 11 9 11 11 11 12 13 12 13 14 13 14 15 16 15 16 11 12 11 7 9 8 5 5 5 3 4 4 11 10 11 5 3 3
4 6 6 7 7 9 9 9 7 9 8 8 10 11 12 12 12 13 14 14 14 15 14 13 12 10 9 7 5 4 2 3 3 4 3 2 3 6 5 4 5 4 3
1 3 3 3 4 3 3 4 6 6 8 8 9 11 11 11 11 12 12 12 12 10 7 4 5 5 6 4 3 3 5 5 4 4 3 4 3 3 3 5 5 3 5
3 1 1 0 1 2 3 4 4 4 3 3 1 1 2 1 3 4 2 2 3 3 4 5 4 3 3 4 4 7 8 6 6 5 4 3 5 6 11 5 6 3 3
4 4 4 5 5 5 5 5 5 5 5 5 6 5 6 4 7 8 5 4 3 2 1 3 3 2 2 6 8 13 14 10 10 7 6 6 7 6 7 5 6 3 3
5 5 5 5 5 5 5 5 5 5 5 6 5 5 6 5 8 7 7 3 3 2 2 2 1 1 3 3 7 10 10 11 10 7 8 8 7 9 8 6 4 3 3
6 5 5 5 5 5 5 5 5 5 5 5 5 5 5 3 6 6 7 5 4 4 4 1 0 1 3 4 4 4 3 3 5 3 5 5 3 9 8 6 6 5 1
6 5 5 5 5 5 5 5 4 4 3 3 3 4 3 2 6 5 6 5 5 5 3 3 3 4 6 9 6 6 6 3 6 9 10 12 13 15 11 7 5 4 1
4 3 4 5 6 6 5 4 2 3 4 3 4 3 4 4 8 8 5 2 3 2 3 3 0 2 4 10 5 6 6 4 5 5 4 4 5 8 16 10 6 4 4
4 3 3 3 5 5 5 2 3 5 4 4 5 4 4 5 5 9 7 3 2 2 2 2 2 2 6 9 7 3 3 6 6 4 4 3 3 2 3 2 3 4 3
4 4 4 4 3 4 7 4 4 4 5 5 4 4 4 4 7 7 9 8 6 3 2 1 1 1 5 8 5 6 9 7 4 4 4 5 5 4 3 3 4 3 1
5 5 5 5 6 5 5 5 4 4 4 4 4 4 4 4 4 8 9 10 10 3 1 3 3 2 3 3 8 7 8 3 3 3 3 3 3 4 4 3 3 2 3
7 6 5 6 5 5 4 3 4 4 4 3 4 4 2 2 3 2 2 3 5 4 5 3 4 6 5 4 3 3 3 2 1 4 4 2 1 2 2 3 2 3 3
6 6 6 5 5 5 5 4 4 2 3 4 3 3 3 3 3 3 3 3 3 4 4 3 3 2 2 2 2 2 2 2 1 1 3 4 2 1 1 1 2 2 5
7 5 4 4 4 4 4 5 14 14 14 15 13 7 2 6 7 5 6 5 7 4 4 3 4 3 2 1 1 1 0 1 2 2 1 2 3 5 2 2 3 4 4
7 6 4 4 4 4 3 3 4 5 16 16 13 11 9 7 5 5 5 7 10 6 2 2 2 2 2 3 2 2 3 3 2 1 2 5 3 2 2 2 3 3 4
7 7 4 3 3 4 4 3 3 4 4 3 7 10 12 7 5 4 2 4 2 3 1 2 2 1 1 1 1 1 2 2 2 2 2 2 2 2 2 2 1 4 4
5 4 4 2 3 4 4 6 5 6 4 3 3 6 8 9 10 11 10 3 1 1 1 1 1 1 1 1 1 2 1 1 1 1 1 2 2 2 2 2 2 5 4
6 8 6 3 4 5 6 6 5 4 4 3 2 2 3 1 3 3 4 4 4 3 4 3 3 2 1 1 0 0 0 1 1 2 3 3 3 3 3 3 3 3 3
3 4 6 6 7 6 5 5 4 3 3 2 2 4 10 3 2 2 2 2 2 2 2 1 2 1 1 1 0 1 1 2 2 3 2 2 2 2 3 3 2 3 3
5 5 5 6 4 5 4 4 3 4 2 1 2 3 7 2 2 1 2 2 3 3 3 2 2 2 2 1 2 2 2 3 3 2 3 2 2 2 2 1 2 2 3
5 5 5 5 4 5 4 4 3 3 2 2 3 3 2 2 3 2 3 3 3 4 3 2 3 4 3 2 2 2 3 4 4 3 3 3 2 3 2 3 3 2 3
5 6 5 5 4 4 3 3 2 2 3 2 2 2 3 3 4 4 3 3 3 4 3 3 3 4 3 4 3 3 3 3 3 3 4 3 3 2 2 2 3 4 3
4 5 5 4 4 3 4 3 3 3 3 3 3 2 2 4 4 4 4 3 4 4 5 4 3 4 5 7 6 6 5 7 4 3 2 3 4 4 3 2 3 2 3
4 4 3 3 3 3 3 4 5 4 5 4 4 4 4 5 5 5 4 4 4 4 5 4 5 8 7 6 7 8 7 8 6 7 5 4 4 4 3 4 5 3 3
Wind_Direction
210 208 211 212 212 213 216 218 221 210 201 200 203 208 215 217 218 217 226 230 226 230 233 229 232 235 234 226 214 225 234 237 253 104 120 112 170 148 163 180 202 222 240
190 197 203 207 204 206 212 215 200 211 203 207 207 210 215 219 219 218 224 225 227 231 234 233 236 238 237 235 219 231 231 178 191 155 157 157 169 175 186 164 168 207 223
190 188 207 204 196 207 210 211 207 211 210 207 210 217 221 222 224 225 227 231 230 234 239 238 237 239 237 243 228 215 189 125 139 134 136 123 107 173 153 133 162 191 207
213 228 220 231 221 211 209 208 214 219 223 220 216 222 223 225 229 231 231 231 234 237 245 261 271 235 232 236 176 142 124 136 139 146 135 148 127 146 160 171 187 193 201
117 132 248 109 31 44 59 40 25 9 352 9 273 282 13 29 21 338 359 29 340 352 24 36 43 48 111 152 172 161 161 149 169 166 143 155 164 165 180 177 191 177 194
79 70 66 64 65 66 53 48 57 55 51 54 52 51 46 57 24 42 36 57 60 49 29 63 76 108 159 167 167 181 167 171 180 179 177 186 168 171 167 176 184 157 217
77 69 73 85 85 78 80 79 69 61 67 67 60 65 69 53 33 35 41 64 70 68 88 106 158 67 203 169 182 183 189 199 186 179 169 175 160 180 159 159 181 133 207
91 84 75 91 93 87 88 87 82 66 63 67 54 55 78 41 44 62 86 91 90 87 82 113 208 186 206 169 159 144 142 177 154 142 160 159 141 149 158 174 156 145 210
78 87 93 114 122 111 96 98 96 105 90 99 93 82 93 48 35 65 94 92 96 86 96 124 167 186 205 182 154 156 150 138 138 127 114 128 142 164 155 126 152 151 216
102 119 131 135 123 118 123 103 79 90 100 101 84 64 58 54 28 89 94 110 98 95 55 41 56 236 216 189 153 163 157 161 143 117 110 136 154 179 182 184 155 149 140
123 125 111 108 114 117 110 99 119 105 103 86 82 48 51 39 26 87 77 62 85 73 61 24 348 260 194 178 169 160 148 133 149 112 102 103 141 161 186 123 149 139 142
123 119 106 101 102 118 117 102 87 99 91 74 84 61 33 19 38 93 68 65 60 70 36 9 321 293 181 176 129 133 132 120 132 140 155 187 194 188 163 184 188 198 218
116 99 86 71 57 47 74 82 79 73 87 79 80 68 34 8 19 74 58 69 65 75 58 59 64 153 130 115 142 146 134 128 139 167 212 216 195 169 162 165 171 197 231
100 87 69 78 72 58 64 63 88 76 77 70 67 72 62 44 30 19 54 67 71 68 61 64 104 113 107 93 69 140 126 139 179 247 259 252 140 121 158 158 171 179 216
95 102 96 93 89 82 59 57 62 44 89 97 83 70 65 22 321 28 67 57 43 58 64 50 32 49 82 64 61 46 53 118 160 177 270 279 277 157 159 144 201 187 221
103 88 87 94 84 85 91 59 68 81 80 77 79 85 1 55 51 73 132 122 118 83 45 60 62 53 71 54 326 290 273 277 198 172 197 182 236 256 216 206 198 220 239
110 105 97 100 94 108 92 104 119 37 67 59 54 51 54 52 45 50 89 163 147 113 115 120 109 80 7 353 322 285 270 266 284 213 233 267 233 212 212 215 199 219 246
62 53 67 65 96 94 91 103 102 85 64 34 23 35 13 52 64 82 70 76 119 74 69 43 15 32 49 354 310 275 300 273 225 214 202 217 225 205 207 226 237 249 253
54 57 51 46 49 81 88 73 65 69 63 44 0 6 0 15 38 36 40 36 57 33 44 65 107 353 311 303 329 319 285 256 209 202 243 225 218 175 241 223 211 242 247
37 54 52 51 54 55 54 69 67 64 69 58 32 338 321 355 35 17 22 8 21 28 16 14 15 6 0 52 215 189 280 319 242 206 228 219 214 197 225 216 208 225 225
19 37 48 61 56 53 49 51 54 61 61 43 320 308 36 75 5 33 8 5 14 343 310 297 292 261 248 244 234 258 229 253 238 235 227 226 219 210 212 221 210 216 218
35 33 40 55 51 56 56 55 56 62 42 353 305 326 23 52 42 19 336 314 306 287 277 273 281 271 255 236 224 239 245 251 260 252 248 234 225 240 223 200 213 213 215
24 34 40 44 44 46 45 35 33 26 358 329 325 329 335 336 335 332 320 309 308 309 307 312 296 302 300 296 277 234 234 247 241 211 224 232 229 234 206 202 200 221 211
23 24 27 30 28 25 17 4 334 313 310 302 304 304 310 310 308 304 289 292 294 294 287 285 274 275 285 279 274 264 251 264 242 233 225 225 239 246 214 205 207 219 215
18 15 17 11 358 344 321 304 289 280 278 269 278 273 266 263 267 261 264 266 274 281 287 291 274 269 275 286 281 273 258 272 265 235 225 214 224 230 215 215 193 214 231
355 347 331 313 304 294 289 290 290 289 286 279 267 267 262 267 266 268 269 261 259 258 259 255 258 265 269 262 261 263 260 263 249 242 218 208 216 217 200 223 231 186 183